Flag for Cayman Islands Weather past 2 weeks in George Town, Cayman Islands

Now
82 °F

Passing clouds.


Feels Like: 91 °F
Forecast: 79 / 83 °F
Wind: 7 mph from Southeast

Location: Owen Roberts Airportgrand Cayman

Current Time: Apr 26, 2015 at 11:17:17 PM

Latest Report: Apr 26, 2015 at 10:00 PM


Visibility: N/A

Pressure: 29.86 "Hg

Humidity: 84%

Dew point: 77 °F

Location of George TownLocation

Historic Weather in George Town — Graph

°F

George Town temperature yesterday

Maximum temperature yesterday: 88 °F (at 11:50 AM)
Minimum temperature yesterday: 79 °F (at 5:55 AM)
Average temperature yesterday: 85 °F

Past Weeks' High & Low Weather Summary

 TemperatureHumidityPressure
High88 °F (Apr 12, 12:50 PM)100% (Apr 25, 5:55 AM)30.07 "Hg (Apr 25, 5:55 AM)
Low77 °F (Apr 18, 5:54 AM)62% (Apr 16, 4:00 PM)29.83 "Hg (Apr 26, 4:00 PM)
Average84 °F81%29.97 "Hg
* Reported Apr 12 5:53 AM — Apr 26 10:00 PM, George Town, Weather by CustomWeather, © 2015

Note: Actual official high and low records may vary slightly from our data, if they occured in-between our weather recording intervals... More about our weather records

Advertising

George Town weather history for previous 24 hours

 ConditionsComfort  
Time TempWeatherWind HumidityBarometerVisibility
10:00 PM
Sun, Apr 26
82 °FPassing clouds.7 mph84%29.86 "HgN/A
9:00 PM82 °FPassing clouds.7 mph84%29.86 "HgN/A
8:00 PM82 °FPassing clouds.7 mph84%29.86 "HgN/A
7:00 PM82 °FPassing clouds.8 mph84%29.83 "HgN/A
6:00 PM84 °FPartly sunny.8 mph84%29.83 "HgN/A
5:00 PM86 °FScattered clouds.8 mph79%29.83 "HgN/A
4:00 PM86 °FScattered clouds.9 mph79%29.83 "HgN/A
3:00 PM86 °FPassing clouds.10 mph79%29.86 "HgN/A
2:00 PM88 °FPassing clouds.10 mph75%29.86 "HgN/A
1:00 PM86 °FPassing clouds.9 mph79%29.89 "HgN/A
12:00 PM86 °FPassing clouds.8 mph79%29.92 "HgN/A
11:00 AM88 °FPassing clouds.8 mph75%29.92 "HgN/A
10:00 AM86 °FScattered clouds.7 mph79%29.95 "HgN/A
9:00 AM84 °FPassing clouds.7 mph84%29.92 "HgN/A
8:00 AM82 °FPassing clouds.5 mph89%29.92 "HgN/A
7:00 AM81 °FPassing clouds.3 mph94%29.89 "HgN/A
6:00 AM81 °FPassing clouds.3 mph94%29.89 "HgN/A
Weather by CustomWeather, © 2015

See weather overviewHow to use our weather pages